Theta_e
315 315 314 314 315 316 316 313 312 312 311 310 308 306 308 309 310 310 310 314 314 317 321 321 323 330 331 332 332 334 334 334 334 335 333 331 330 331 331 330 332 330 321
317 315 314 315 316 315 313 312 312 311 311 310 309 307 307 308 309 310 310 309 311 314 316 318 324 325 331 329 330 332 333 332 334 335 332 332 330 331 330 330 331 330 322
315 314 313 312 312 312 312 311 311 311 310 310 309 308 308 307 309 311 311 310 310 310 310 312 320 321 329 331 330 331 332 331 332 334 333 332 331 331 330 330 330 328 322
314 313 313 312 312 311 311 311 310 310 310 309 309 309 309 309 308 311 312 312 311 311 311 310 310 317 323 327 330 330 330 330 329 331 332 331 330 330 330 330 329 329 323
313 312 311 310 309 309 308 308 306 305 304 303 303 304 307 309 310 310 312 313 312 311 311 311 310 310 317 320 325 328 329 329 329 329 331 331 329 329 330 329 328 328 324
311 309 308 307 305 304 302 300 299 299 299 299 299 299 300 300 304 309 310 312 312 312 312 312 312 311 309 313 316 319 325 328 328 330 329 331 330 330 329 328 328 328 323
308 307 305 304 303 301 299 298 299 299 300 301 301 301 301 302 302 302 305 308 310 311 312 312 312 311 311 310 309 312 315 319 326 328 329 329 329 330 329 329 328 328 323
306 305 303 301 299 298 299 300 300 300 300 300 301 301 301 303 302 302 303 303 304 306 307 310 310 311 311 311 310 308 309 313 317 324 327 328 328 326 328 328 328 327 324
303 302 300 299 299 299 299 299 299 299 300 300 300 300 299 300 301 301 301 301 303 304 303 304 306 307 309 311 310 310 310 308 311 316 322 327 328 328 327 328 328 327 323
299 298 298 299 298 298 297 299 299 298 299 299 301 300 299 299 299 298 298 298 300 301 302 302 303 303 304 305 309 310 310 310 309 311 317 323 327 328 328 328 328 325 324
297 298 298 298 297 297 296 296 296 296 296 297 297 298 298 297 299 297 297 296 298 299 300 301 302 302 302 303 304 306 309 310 309 308 312 319 324 326 328 327 326 327 325
296 296 297 297 297 297 296 296 296 296 296 296 297 297 298 297 297 297 296 295 296 296 298 299 301 302 301 302 303 304 304 306 309 309 308 313 321 324 326 327 326 327 325
296 297 297 298 297 296 295 295 296 296 296 296 296 297 297 297 296 297 298 296 295 295 296 297 298 298 299 300 302 303 304 305 305 307 307 313 318 322 324 326 327 327 325
295 295 295 295 295 295 294 295 295 295 295 295 295 296 296 297 297 296 296 295 294 294 295 296 297 298 297 298 299 301 304 306 306 307 308 312 317 320 322 324 325 327 325
293 294 294 294 293 294 294 294 295 295 295 295 296 297 297 297 298 298 298 298 296 294 294 295 294 295 296 297 299 300 302 305 308 308 307 308 316 318 321 322 323 323 324
293 292 293 293 293 294 294 295 295 296 296 296 297 297 297 297 297 297 297 298 298 296 295 294 294 294 295 295 298 300 302 303 306 309 308 308 315 318 318 322 322 323 323
293 293 293 293 293 294 294 295 295 296 296 297 298 298 297 296 296 297 295 296 296 295 295 295 294 294 295 294 296 299 301 301 304 308 309 308 315 317 316 322 322 322 323
293 293 293 293 294 295 295 295 295 295 295 296 297 297 297 295 294 293 292 291 292 294 294 294 294 295 294 295 295 298 300 300 302 305 309 311 313 316 316 320 321 321 322
293 294 293 293 294 295 295 295 295 294 294 294 294 295 294 293 292 291 292 291 292 292 293 294 294 294 295 295 295 297 300 300 301 305 308 310 313 315 316 317 320 321 321
293 293 294 294 295 294 294 294 294 294 293 293 293 292 292 292 291 291 290 290 291 291 292 293 293 294 295 295 296 297 299 300 300 304 308 310 312 315 316 316 317 319 321
293 294 295 295 294 294 295 294 293 293 292 292 291 291 290 290 290 290 290 290 290 290 291 292 292 293 295 296 296 297 299 299 300 303 307 311 312 314 316 316 319 319 319
295 295 294 293 294 294 293 293 292 291 291 290 291 291 291 290 290 291 291 290 290 290 291 291 292 293 294 296 296 297 300 299 301 303 308 311 311 313 315 316 318 318 320
295 295 295 294 295 295 294 293 292 291 290 290 290 290 290 290 290 290 290 290 290 290 290 290 292 293 294 295 296 297 299 300 302 304 309 309 313 313 314 315 317 319 318
295 295 295 295 295 294 293 292 291 291 290 291 290 290 290 289 289 289 289 289 289 290 290 291 291 293 294 295 297 297 299 301 302 305 308 312 312 313 312 315 316 318 317
295 295 295 295 295 294 293 292 292 292 291 290 290 289 289 289 289 289 289 289 289 289 290 290 291 292 294 295 297 298 299 299 303 305 308 311 312 312 313 314 316 316 318
295 295 295 295 295 295 294 294 293 292 290 289 288 288 288 288 288 288 289 289 289 289 289 290 291 291 294 295 296 298 298 299 303 306 307 307 309 310 311 311 314 315 316
Wind_Speed
10 7 5 3 5 10 15 16 12 15 17 18 19 16 16 16 16 15 14 13 14 14 14 15 16 15 15 14 18 19 20 22 21 18 24 23 23 20 20 19 17 14 10
4 6 5 7 8 8 9 9 12 15 16 17 22 20 18 18 18 19 18 16 16 15 14 14 12 12 14 18 16 19 18 22 23 21 28 30 24 21 21 19 17 16 12
9 13 12 9 10 13 14 15 16 19 19 18 20 22 21 19 20 20 20 19 18 18 17 15 11 11 11 13 20 15 14 17 19 20 28 24 21 24 23 23 19 18 14
16 14 13 14 16 16 18 21 24 26 28 28 24 22 23 24 21 24 25 23 20 19 18 17 13 11 11 11 12 18 19 18 16 17 18 21 21 24 24 23 20 20 15
12 12 14 16 19 23 26 28 30 32 32 32 32 31 29 27 23 27 27 29 26 22 21 18 16 14 13 13 15 14 20 22 16 17 20 23 24 24 27 25 23 20 17
11 14 18 22 25 28 30 30 31 30 29 29 28 28 27 27 31 31 31 31 31 30 28 23 18 17 16 16 15 13 13 20 21 17 18 20 24 23 24 25 24 23 17
15 19 22 24 27 29 29 29 27 27 26 25 25 24 24 25 27 28 33 35 35 32 32 31 25 21 19 17 17 16 15 16 18 23 20 18 20 23 23 23 25 22 15
20 23 25 25 25 26 25 24 23 23 23 21 22 23 23 24 25 28 28 30 36 36 35 34 31 27 24 22 20 17 18 18 15 17 25 26 23 22 20 20 21 22 19
21 23 23 22 22 21 22 24 25 23 23 23 22 22 21 22 23 23 25 26 27 31 33 34 36 33 28 28 25 22 19 17 18 18 19 22 26 25 23 21 23 24 20
21 23 24 21 19 22 24 24 24 23 23 21 23 22 21 21 20 21 19 17 17 17 23 24 27 32 34 33 29 25 19 19 18 18 17 21 22 26 27 23 27 26 22
21 21 19 20 21 23 22 21 21 20 19 20 21 21 21 19 19 18 16 15 14 14 14 16 15 22 24 28 28 28 27 22 23 22 21 19 23 21 27 28 25 28 25
19 18 18 18 20 19 23 21 20 20 21 20 19 20 17 17 18 18 18 16 17 15 15 15 17 18 20 22 20 19 23 25 26 27 24 23 20 20 23 28 31 32 27
21 21 20 20 19 19 21 21 21 19 20 20 19 20 19 18 19 21 19 15 14 16 14 18 20 24 20 18 21 19 18 21 21 25 28 22 22 21 16 31 34 33 29
20 21 22 22 21 21 20 20 20 20 21 21 22 24 25 23 22 18 16 16 16 14 12 19 23 23 26 27 27 20 16 16 19 22 24 22 20 20 23 22 35 38 36
22 24 21 21 21 19 20 21 22 21 21 25 27 28 31 31 28 26 24 23 22 21 20 22 19 19 20 20 18 15 16 16 17 19 24 28 20 23 19 24 27 34 37
22 21 22 21 19 20 23 25 23 22 22 22 24 28 30 30 29 28 27 27 25 22 22 23 22 21 21 18 16 16 15 18 19 19 21 28 22 21 22 24 28 35 42
21 23 23 22 21 22 24 27 31 29 25 23 23 25 26 27 25 27 27 28 26 23 25 26 26 23 21 19 18 17 18 18 17 20 20 27 23 21 21 24 25 32 36
23 24 24 23 25 25 27 30 31 31 33 33 30 31 30 28 28 25 24 24 25 25 26 27 23 19 18 19 17 17 19 19 20 22 18 26 24 21 21 24 27 34 35
21 21 23 25 26 28 30 31 30 31 31 33 35 35 32 31 30 28 20 21 21 22 22 24 22 19 16 16 17 17 17 19 21 22 21 23 25 23 22 24 25 26 27
22 28 29 27 26 26 27 29 30 31 31 32 32 33 33 32 27 23 20 19 19 18 18 22 21 18 16 17 16 17 17 19 21 22 24 27 25 25 23 25 26 26 26
27 29 27 25 25 26 29 31 32 32 32 32 33 31 29 27 27 24 22 19 18 18 17 17 18 18 17 16 16 18 17 19 21 20 23 24 30 25 22 23 25 26 24
27 28 26 24 26 29 30 30 30 30 31 30 31 29 26 25 24 26 24 21 20 20 18 17 18 18 18 16 15 17 16 19 20 20 21 23 30 27 23 24 24 26 28
27 27 27 27 28 31 31 29 30 29 29 28 27 27 26 26 25 25 24 23 21 20 18 16 17 16 16 19 16 15 16 18 20 16 18 23 27 25 22 24 25 26 28
26 28 28 27 29 29 30 31 29 28 28 28 28 27 26 25 24 24 23 21 20 18 17 18 17 15 16 20 16 15 15 18 19 14 14 18 26 26 25 23 22 26 27
28 29 27 28 30 30 31 30 29 28 28 28 28 26 24 24 23 22 20 19 18 17 16 15 14 17 15 17 20 17 12 20 21 13 18 22 23 22 22 21 21 22 24
31 32 30 29 29 29 29 30 30 30 30 28 26 24 23 23 22 20 18 17 15 15 14 14 14 16 17 17 21 20 16 18 20 19 18 21 21 21 24 23 19 18 21
Wind_Direction
85 58 40 15 332 338 331 336 322 322 322 322 320 316 307 308 309 308 310 318 315 310 312 299 292 279 263 249 246 249 248 248 255 251 256 257 252 248 248 248 247 255 259
17 345 336 320 307 296 302 306 293 293 300 306 310 309 304 301 299 301 300 301 310 314 312 312 314 310 270 253 247 246 245 245 253 251 257 251 250 245 243 247 242 245 248
281 305 311 300 295 303 305 302 299 298 288 285 297 301 297 297 292 292 294 294 296 303 307 307 322 311 287 264 249 246 248 254 255 251 260 250 252 246 237 239 238 237 243
278 291 296 301 303 297 294 293 293 294 296 297 291 280 285 290 290 284 284 285 281 288 292 296 303 302 284 277 256 245 245 244 253 261 242 247 247 248 240 241 240 233 237
269 283 290 295 297 299 299 297 294 293 292 291 291 287 280 274 271 271 272 278 279 281 282 282 288 288 284 282 273 257 243 246 241 242 242 242 244 241 238 237 240 231 232
269 286 296 302 303 303 302 300 299 297 296 294 290 285 281 275 265 263 268 269 274 277 279 277 277 278 279 276 277 275 261 239 242 235 238 242 247 243 242 242 241 230 228
285 296 301 303 303 303 304 303 303 303 302 300 297 291 285 281 276 269 260 261 268 269 273 277 277 271 271 274 273 270 268 269 240 236 238 237 245 248 249 247 241 233 218
301 304 306 306 306 305 304 304 303 303 300 299 299 298 296 290 278 275 270 264 261 268 269 270 272 271 267 268 267 271 265 257 260 253 238 240 242 244 254 259 244 229 220
305 307 309 309 309 308 307 305 303 301 300 300 299 300 299 297 293 281 273 271 266 264 271 267 267 268 267 260 264 264 267 268 261 255 256 242 242 240 240 244 221 218 212
307 307 308 310 310 312 312 307 304 304 302 302 301 303 304 306 303 299 297 286 277 272 272 278 271 266 263 264 257 259 261 261 264 256 250 248 238 235 231 232 225 220 209
304 308 308 307 308 315 313 311 310 309 308 306 303 302 305 308 311 303 302 291 286 276 273 274 274 271 266 264 260 257 257 258 258 255 247 245 243 240 231 226 227 217 203
308 308 304 303 305 305 309 309 307 309 311 311 310 311 310 307 307 308 296 284 272 278 276 269 269 269 270 270 271 264 257 257 255 251 248 247 242 237 231 228 223 212 225
312 308 304 300 302 305 308 306 307 307 306 305 305 306 309 311 310 311 318 308 282 272 271 269 264 270 264 259 263 256 254 252 249 245 244 241 239 243 240 236 221 212 210
318 313 309 307 306 304 300 300 302 303 304 303 304 304 303 303 305 307 308 309 309 300 287 267 257 260 273 267 265 262 256 252 246 245 239 228 239 236 238 237 233 219 196
321 321 317 314 311 308 309 311 311 308 306 304 307 305 304 302 301 300 300 302 302 302 297 283 277 270 266 265 264 261 252 246 243 242 238 225 228 230 237 229 245 226 206
323 326 325 316 306 307 311 311 311 307 301 296 298 299 301 299 300 296 295 295 293 288 288 287 280 271 264 264 259 252 250 245 237 236 236 223 221 227 223 233 231 230 204
329 327 325 320 309 306 308 310 312 314 307 299 302 304 299 298 296 293 293 291 285 277 270 276 279 277 271 264 257 246 241 232 235 225 233 216 219 221 217 221 224 225 222
328 324 320 313 313 308 307 309 310 310 310 309 305 309 309 306 306 299 292 290 282 273 270 271 272 270 260 257 255 244 238 237 229 226 225 214 215 216 217 210 209 213 215
319 315 314 311 308 305 306 308 311 313 311 309 311 310 311 309 303 300 295 286 281 273 266 265 264 271 260 253 249 243 240 235 223 221 217 214 214 213 215 215 211 208 211
319 321 325 320 315 314 314 317 313 310 307 306 306 306 308 306 301 298 290 281 274 272 271 264 264 268 250 250 248 242 239 235 223 223 219 209 210 211 210 213 211 208 211
325 328 328 327 328 326 322 315 312 310 309 306 305 305 304 302 298 295 292 287 277 274 272 263 259 257 249 245 239 234 235 234 224 230 216 219 205 207 206 209 203 205 208
334 333 333 331 331 329 321 316 314 311 310 309 310 310 310 304 298 295 293 286 280 275 272 258 256 247 245 233 234 233 234 229 222 222 221 204 206 207 204 203 196 201 203
342 340 337 333 329 328 327 325 323 320 317 315 313 311 308 304 299 295 290 287 279 274 269 254 246 246 245 222 225 226 235 224 220 221 203 208 203 199 198 197 197 198 200
346 345 342 339 337 335 335 334 330 327 324 320 317 315 311 307 301 295 291 286 278 271 263 255 245 232 237 221 212 221 226 218 214 221 203 177 192 194 201 195 186 189 191
355 351 348 347 347 347 345 342 340 337 333 330 325 319 314 309 306 302 296 286 277 268 258 251 238 231 224 218 207 209 215 214 201 190 170 160 179 183 184 181 183 182 187
4 2 359 355 354 354 354 352 349 346 342 338 331 324 319 314 308 302 296 289 277 264 255 247 223 223 217 209 207 210 206 209 197 173 167 158 167 180 188 191 185 183 189